Location: Enborne
(51.3833°N, 1.3667°W)
Time: 01:15:03
(UTC+00:00)

NOSS 2-2 (C) - Pass Details

Date: 19 January 2021
Orbit: 463 x 1745 km, 63.3° (Epoch: 03 March)

Event Time Altitude Azimuth Distance (km) Brightness Sun altitude
Rises 20:27:45 0° 315° (NW) 2,908 7.7 -35.9°
Reaches altitude 10° 20:29:51 10° 322° (NW) 2,130 6.8 -36.3°
Enters shadow 20:30:49 16° 327° (NNW) 1,802 6.3 -36.4°
